Météo par heure à Alipur

Ce jour, 22 Octobre, Jeudi

Heure Température Précipitation Vent Pression Humidité
00:00 +29°C° 0 mm 1 m/s 737 mmHg 16%
01:00 +29°C° 0 mm 1 m/s 736 mmHg 17%
02:00 +28°C° 0 mm 1 m/s 736 mmHg 17%
03:00 +28°C° 0 mm 1 m/s 736 mmHg 17%
04:00 +28°C° 0 mm 1 m/s 736 mmHg 17%
05:00 +28°C° 0 mm 1 m/s 736 mmHg 17%
06:00 +28°C° 0 mm 1 m/s 737 mmHg 17%
07:00 +29°C° 0 mm 1 m/s 737 mmHg 17%
08:00 +30°C° 0 mm 1 m/s 738 mmHg 18%
09:00 +32°C° 0 mm 1 m/s 738 mmHg 16%
10:00 +33°C° 0 mm 1 m/s 737 mmHg 15%
11:00 +33°C° 0 mm 0 m/s 737 mmHg 13%
12:00 +36°C° 0 mm 1 m/s 737 mmHg 13%
13:00 +36°C° 0 mm 1 m/s 736 mmHg 12%
14:00 +37°C° 0 mm 1 m/s 735 mmHg 12%
15:00 +35°C° 0 mm 1 m/s 735 mmHg 14%
16:00 +35°C° 0 mm 2 m/s 735 mmHg 15%
17:00 +34°C° 0 mm 3 m/s 735 mmHg 17%
18:00 +32°C° 0 mm 2 m/s 735 mmHg 18%
19:00 +31°C° 0 mm 2 m/s 735 mmHg 20%
20:00 +30°C° 0 mm 2 m/s 736 mmHg 21%
21:00 +30°C° 0 mm 1 m/s 736 mmHg 22%
22:00 +29°C° 0 mm 1 m/s 736 mmHg 22%
23:00 +26°C° 0 mm 0 m/s 736 mmHg 23%

Demain, 23 Octobre, Vendredi

Heure Température Précipitation Vent Pression Humidité
00:00 +28°C° 0 mm 1 m/s 736 mmHg 23%
01:00 +28°C° 0 mm 1 m/s 736 mmHg 23%
02:00 +27°C° 0 mm 1 m/s 736 mmHg 24%
03:00 +27°C° 0 mm 1 m/s 736 mmHg 24%
04:00 +27°C° 0 mm 1 m/s 736 mmHg 25%
05:00 +26°C° 0 mm 1 m/s 736 mmHg 26%
06:00 +27°C° 0 mm 1 m/s 737 mmHg 25%
07:00 +28°C° 0 mm 1 m/s 737 mmHg 25%
08:00 +28°C° 0 mm 1 m/s 738 mmHg 25%
09:00 +30°C° 0 mm 1 m/s 738 mmHg 23%
10:00 +32°C° 0 mm 1 m/s 737 mmHg 20%
11:00 +34°C° 0 mm 1 m/s 737 mmHg 18%
12:00 +35°C° 0 mm 1 m/s 737 mmHg 17%
13:00 +35°C° 0 mm 1 m/s 736 mmHg 15%
14:00 +36°C° 0 mm 1 m/s 736 mmHg 14%
15:00 +35°C° 0 mm 1 m/s 735 mmHg 15%
16:00 +32°C° 0 mm 0 m/s 735 mmHg 15%
17:00 +31°C° 0 mm 0 m/s 735 mmHg 16%
18:00 +32°C° 0 mm 1 m/s 736 mmHg 17%
19:00 +31°C° 0 mm 1 m/s 736 mmHg 17%
20:00 +30°C° 0 mm 1 m/s 736 mmHg 18%
21:00 +29°C° 0 mm 1 m/s 736 mmHg 19%
22:00 +29°C° 0 mm 1 m/s 736 mmHg 20%
23:00 +28°C° 0 mm 1 m/s 736 mmHg 20%

Après-demain, 24 Octobre, Samedi

Heure Température Précipitation Vent Pression Humidité
00:00 +28°C° 0 mm 1 m/s 736 mmHg 21%
01:00 +27°C° 0 mm 1 m/s 736 mmHg 22%
02:00 +27°C° 0 mm 1 m/s 736 mmHg 22%
03:00 +26°C° 0 mm 1 m/s 736 mmHg 23%
04:00 +26°C° 0 mm 1 m/s 736 mmHg 23%
05:00 +23°C° 0 mm 0 m/s 736 mmHg 23%
06:00 +24°C° 0 mm 0 m/s 736 mmHg 23%
07:00 +25°C° 0 mm 0 m/s 737 mmHg 22%
08:00 +28°C° 0 mm 1 m/s 738 mmHg 21%
09:00 +30°C° 0 mm 1 m/s 738 mmHg 19%
10:00 +32°C° 0 mm 1 m/s 738 mmHg 16%
11:00 +34°C° 0 mm 1 m/s 737 mmHg 14%
12:00 +35°C° 0 mm 1 m/s 737 mmHg 13%
13:00 +36°C° 0 mm 2 m/s 737 mmHg 12%
14:00 +37°C° 0 mm 2 m/s 736 mmHg 11%
15:00 +36°C° 0 mm 2 m/s 736 mmHg 13%
16:00 +35°C° 0 mm 2 m/s 736 mmHg 14%
17:00 +34°C° 0 mm 2 m/s 736 mmHg 15%
18:00 +32°C° 0 mm 1 m/s 736 mmHg 16%
19:00 +31°C° 0 mm 1 m/s 737 mmHg 16%
20:00 +28°C° 0 mm 0 m/s 737 mmHg 17%
21:00 +30°C° 0 mm 1 m/s 738 mmHg 17%
22:00 +29°C° 0 mm 1 m/s 738 mmHg 18%
23:00 +29°C° 0 mm 1 m/s 738 mmHg 18%

, 25 Octobre, Dimanche

Heure Température Précipitation Vent Pression Humidité
00:00 +28°C° 0 mm 1 m/s 738 mmHg 19%
01:00 +27°C° 0 mm 1 m/s 738 mmHg 20%
02:00 +26°C° 0 mm 1 m/s 738 mmHg 20%
03:00 +26°C° 0 mm 1 m/s 738 mmHg 21%
04:00 +26°C° 0 mm 1 m/s 738 mmHg 22%
05:00 +25°C° 0 mm 1 m/s 738 mmHg 22%
06:00 +26°C° 0 mm 1 m/s 739 mmHg 22%
07:00 +27°C° 0 mm 1 m/s 739 mmHg 23%
08:00 +27°C° 0 mm 1 m/s 740 mmHg 23%
09:00 +30°C° 0 mm 1 m/s 740 mmHg 20%
10:00 +32°C° 0 mm 1 m/s 740 mmHg 18%
11:00 +32°C° 0 mm 0 m/s 740 mmHg 15%
12:00 +35°C° 0 mm 1 m/s 740 mmHg 13%
13:00 +37°C° 0 mm 2 m/s 739 mmHg 11%
14:00 +38°C° 0 mm 3 m/s 738 mmHg 8%
15:00 +36°C° 0 mm 2 m/s 738 mmHg 9%
16:00 +35°C° 0 mm 2 m/s 738 mmHg 10%
17:00 +34°C° 0 mm 2 m/s 738 mmHg 11%
18:00 +32°C° 0 mm 2 m/s 738 mmHg 11%
19:00 +31°C° 0 mm 1 m/s 738 mmHg 11%
20:00 +30°C° 0 mm 1 m/s 739 mmHg 11%
21:00 +29°C° 0 mm 1 m/s 739 mmHg 11%
22:00 +28°C° 0 mm 1 m/s 739 mmHg 11%
23:00 +27°C° 0 mm 2 m/s 739 mmHg 12%

25 Octobre, Dimanche

Heure Température Précipitation Vent Pression Humidité
00:00 +28°C° 0 mm 1 m/s 738 mmHg 19%
01:00 +27°C° 0 mm 1 m/s 738 mmHg 20%
02:00 +26°C° 0 mm 1 m/s 738 mmHg 20%
03:00 +26°C° 0 mm 1 m/s 738 mmHg 21%
04:00 +26°C° 0 mm 1 m/s 738 mmHg 22%
05:00 +25°C° 0 mm 1 m/s 738 mmHg 22%
06:00 +26°C° 0 mm 1 m/s 739 mmHg 22%
07:00 +27°C° 0 mm 1 m/s 739 mmHg 23%
08:00 +27°C° 0 mm 1 m/s 740 mmHg 23%
09:00 +30°C° 0 mm 1 m/s 740 mmHg 20%
10:00 +32°C° 0 mm 1 m/s 740 mmHg 18%
11:00 +32°C° 0 mm 0 m/s 740 mmHg 15%
12:00 +35°C° 0 mm 1 m/s 740 mmHg 13%
13:00 +37°C° 0 mm 2 m/s 739 mmHg 11%
14:00 +38°C° 0 mm 3 m/s 738 mmHg 8%
15:00 +36°C° 0 mm 2 m/s 738 mmHg 9%
16:00 +35°C° 0 mm 2 m/s 738 mmHg 10%
17:00 +34°C° 0 mm 2 m/s 738 mmHg 11%
18:00 +32°C° 0 mm 2 m/s 738 mmHg 11%
19:00 +31°C° 0 mm 1 m/s 738 mmHg 11%
20:00 +30°C° 0 mm 1 m/s 739 mmHg 11%
21:00 +29°C° 0 mm 1 m/s 739 mmHg 11%
22:00 +28°C° 0 mm 1 m/s 739 mmHg 11%
23:00 +27°C° 0 mm 2 m/s 739 mmHg 12%

26 Octobre, Lundi

Heure Température Précipitation Vent Pression Humidité
00:00 +27°C° 0 mm 2 m/s 739 mmHg 12%
01:00 +26°C° 0 mm 2 m/s 739 mmHg 12%
02:00 +26°C° 0 mm 2 m/s 739 mmHg 12%
03:00 +25°C° 0 mm 2 m/s 739 mmHg 13%
04:00 +25°C° 0 mm 2 m/s 739 mmHg 13%
05:00 +24°C° 0 mm 2 m/s 739 mmHg 13%
06:00 +25°C° 0 mm 2 m/s 739 mmHg 13%
07:00 +26°C° 0 mm 1 m/s 740 mmHg 13%
08:00 +27°C° 0 mm 1 m/s 740 mmHg 13%
09:00 +29°C° 0 mm 2 m/s 740 mmHg 12%
10:00 +32°C° 0 mm 2 m/s 740 mmHg 10%
11:00 +35°C° 0 mm 3 m/s 740 mmHg 9%
12:00 +36°C° 0 mm 3 m/s 739 mmHg 8%
13:00 +37°C° 0 mm 4 m/s 739 mmHg 8%
14:00 +38°C° 0 mm 4 m/s 738 mmHg 7%
15:00 +36°C° 0 mm 4 m/s 738 mmHg 8%
16:00 +35°C° 0 mm 3 m/s 738 mmHg 9%
17:00 +33°C° 0 mm 3 m/s 738 mmHg 10%
18:00 +32°C° 0 mm 2 m/s 738 mmHg 10%
19:00 +31°C° 0 mm 2 m/s 738 mmHg 10%
20:00 +30°C° 0 mm 2 m/s 739 mmHg 10%
21:00 +29°C° 0 mm 2 m/s 739 mmHg 11%
22:00 +28°C° 0 mm 2 m/s 738 mmHg 12%
23:00 +27°C° 0 mm 2 m/s 738 mmHg 12%

27 Octobre, Mardi

Heure Température Précipitation Vent Pression Humidité
00:00 +26°C° 0 mm 2 m/s 738 mmHg 13%
01:00 +26°C° 0 mm 1 m/s 738 mmHg 13%
02:00 +25°C° 0 mm 1 m/s 738 mmHg 14%
03:00 +25°C° 0 mm 1 m/s 738 mmHg 14%
04:00 +24°C° 0 mm 1 m/s 738 mmHg 15%
05:00 +24°C° 0 mm 2 m/s 738 mmHg 15%
06:00 +25°C° 0 mm 2 m/s 739 mmHg 15%
07:00 +26°C° 0 mm 2 m/s 739 mmHg 15%
08:00 +27°C° 0 mm 1 m/s 740 mmHg 15%
09:00 +29°C° 0 mm 2 m/s 740 mmHg 13%
10:00 +31°C° 0 mm 2 m/s 740 mmHg 12%
11:00 +34°C° 0 mm 2 m/s 740 mmHg 10%
12:00 +35°C° 0 mm 3 m/s 739 mmHg 9%
13:00 +36°C° 0 mm 3 m/s 739 mmHg 9%
14:00 +37°C° 0 mm 4 m/s 738 mmHg 8%
15:00 +36°C° 0 mm 3 m/s 738 mmHg 9%
16:00 +34°C° 0 mm 3 m/s 738 mmHg 10%
17:00 +32°C° 0 mm 2 m/s 738 mmHg 12%
18:00 +31°C° 0 mm 2 m/s 738 mmHg 12%
19:00 +30°C° 0 mm 1 m/s 738 mmHg 12%
20:00 +29°C° 0 mm 1 m/s 739 mmHg 12%
21:00 +28°C° 0 mm 1 m/s 739 mmHg 13%
22:00 +27°C° 0 mm 1 m/s 739 mmHg 14%
23:00 +27°C° 0 mm 1 m/s 739 mmHg 15%
Voir plus

Nous avons besoin de votre consentement

Meteoprog et ses fournisseurs de services peuvent stocker et accéder à des données personnelles telles que des cookies, des identifiants d'appareils ou d'autres technologies similaires sur votre appareil et traiter ces données pour personnaliser le contenu et les publicités, ainsi que pour fournir des fonctionnalités de médias sociaux et analyser le trafic.

  • Stocker et/ou accéder à des informations sur votre appareil

    Des cookies, des identifiants d'appareils ou d'autres informations peuvent être stockés ou accessibles sur votre appareil aux fins indiquées ci-dessus.

  • Annonces et contenus personnalisés, mesure des annonces et des contenus, connaissance de l'audience et développement de produits

    Les annonces et le contenu peuvent être personnalisés en fonction d'un profil. D'autres données peuvent être ajoutées pour mieux personnaliser les annonces et le contenu. Les performances des publicités et du contenu peuvent être mesurées. Il est possible d'obtenir des informations sur le public qui a vu les publicités et le contenu. Ces données peuvent être utilisées pour développer ou améliorer l'expérience de l'utilisateur, les systèmes et les logiciels.

En cliquant sur "J'accepte", vous autorisez l'utilisation de cookies, des identifiants d'appareils, des balises web ou d'autres technologies similaires. Vos paramètres peuvent être modifiés dans le navigateur de votre appareil.

Dans certains cas, des intérêts légitimes peuvent être invoqués plutôt qu'un consentement. Vous pouvez en savoir plus à ce sujet dans notre Politique de confidentialité et de cookies.